AAL349 KLAX-MMMX

Flight info

Callsign AAL349
Flight time 3h 7m
Altitude 35000
Route PNDAH2 TCATE DCT PPE UJ7 HMO UT18 NABAS UT49 DGO UJ5 ZCL UT130 DARAN DARAN3A
Aircraft B738/M-SDE2E3FGHIRWXY/LB1

Departure

Time 2026-05-08 01:21
Airport Los Angeles International Airport (KLAX)

Arrival

Time 2026-05-08 04:28
Airport Mexico City Benito Juárez International Airport (MMMX)
Time Latitude Longitude Altitude Speed Heading
2026-05-08 00:39 33.94112 -118.40632 92 ft 0 kts 263°
2026-05-08 01:03 33.94113 -118.40628 94 ft 3 kts 263°
2026-05-08 01:03 33.94116 -118.40598 92 ft 2 kts 263°
2026-05-08 01:04 33.94120 -118.40575 90 ft 4 kts 217°
2026-05-08 01:04 33.94138 -118.40570 91 ft 2 kts 173°
2026-05-08 01:04 33.94115 -118.40566 90 ft 4 kts 173°
2026-05-08 01:04 33.94099 -118.40564 94 ft 0 kts 173°
2026-05-08 01:08 33.94085 -118.40562 93 ft 4 kts 173°
2026-05-08 01:08 33.94054 -118.40558 92 ft 5 kts 173°
2026-05-08 01:08 33.94019 -118.40552 94 ft 5 kts 173°
2026-05-08 01:09 33.94007 -118.40550 94 ft 0 kts 173°
2026-05-08 01:09 33.94004 -118.40550 94 ft 0 kts 173°
2026-05-08 01:10 33.94003 -118.40550 94 ft 0 kts 173°
2026-05-08 01:12 33.94002 -118.40550 94 ft 1 kts 173°
2026-05-08 01:12 33.93990 -118.40548 94 ft 2 kts 172°
2026-05-08 01:12 33.93973 -118.40544 94 ft 2 kts 171°
2026-05-08 01:12 33.93953 -118.40541 92 ft 4 kts 173°
2026-05-08 01:13 33.93916 -118.40536 94 ft 7 kts 174°
2026-05-08 01:13 33.93863 -118.40529 93 ft 8 kts 173°
2026-05-08 01:13 33.93831 -118.40480 94 ft 9 kts 92°
2026-05-08 01:13 33.93838 -118.40400 95 ft 10 kts 82°
2026-05-08 01:14 33.93847 -118.40305 95 ft 12 kts 83°
2026-05-08 01:14 33.93858 -118.40195 95 ft 14 kts 83°
2026-05-08 01:14 33.93872 -118.40069 95 ft 16 kts 83°
2026-05-08 01:14 33.93886 -118.39929 95 ft 18 kts 83°
2026-05-08 01:15 33.93902 -118.39771 95 ft 20 kts 83°
2026-05-08 01:15 33.93917 -118.39617 94 ft 18 kts 83°
2026-05-08 01:15 33.93934 -118.39457 94 ft 20 kts 83°
2026-05-08 01:15 33.93951 -118.39278 92 ft 21 kts 83°
2026-05-08 01:16 33.93967 -118.39136 94 ft 16 kts 82°
2026-05-08 01:16 33.93980 -118.38997 93 ft 17 kts 82°
2026-05-08 01:16 33.93997 -118.38844 93 ft 19 kts 83°
2026-05-08 01:16 33.94014 -118.38677 94 ft 21 kts 83°
2026-05-08 01:17 33.94031 -118.38501 95 ft 22 kts 83°
2026-05-08 01:17 33.94050 -118.38322 95 ft 19 kts 83°
2026-05-08 01:17 33.94066 -118.38165 93 ft 19 kts 83°
2026-05-08 01:17 33.94077 -118.38054 92 ft 7 kts 84°
2026-05-08 01:18 33.94075 -118.38032 92 ft 0 kts 107°
2026-05-08 01:19 33.94074 -118.38028 92 ft 2 kts 110°
2026-05-08 01:19 33.94059 -118.38009 93 ft 5 kts 146°
2026-05-08 01:19 33.94017 -118.37997 93 ft 7 kts 174°
2026-05-08 01:20 33.93983 -118.38038 92 ft 8 kts 255°
2026-05-08 01:20 33.93974 -118.38109 93 ft 13 kts 262°
2026-05-08 01:20 33.93938 -118.38456 101 ft 81 kts 263°
2026-05-08 01:20 33.93832 -118.39448 96 ft 154 kts 261°
2026-05-08 01:21 33.93688 -118.40947 356 ft 198 kts 262°
2026-05-08 01:21 33.93524 -118.42644 1022 ft 210 kts 261°
2026-05-08 01:21 33.93316 -118.44422 1192 ft 219 kts 262°
2026-05-08 01:21 33.93077 -118.46265 1779 ft 226 kts 258°
2026-05-08 01:22 33.92390 -118.48057 1974 ft 257 kts 229°
2026-05-08 01:22 33.91112 -118.49581 2762 ft 257 kts 228°
2026-05-08 01:22 33.89851 -118.51133 3547 ft 261 kts 229°
2026-05-08 01:22 33.88631 -118.52711 4369 ft 261 kts 231°
2026-05-08 01:23 33.87420 -118.54345 4841 ft 260 kts 230°
2026-05-08 01:23 33.85914 -118.55613 5473 ft 272 kts 202°
2026-05-08 01:23 33.84019 -118.55947 6170 ft 283 kts 177°
2026-05-08 01:23 33.82061 -118.55499 6856 ft 288 kts 169°
2026-05-08 01:24 33.80093 -118.54935 7524 ft 293 kts 168°
2026-05-08 01:24 33.78127 -118.54374 8205 ft 296 kts 168°
2026-05-08 01:24 33.76094 -118.53810 8877 ft 301 kts 168°
2026-05-08 01:24 33.74040 -118.53250 9625 ft 302 kts 168°
2026-05-08 01:25 33.71986 -118.52695 10326 ft 306 kts 166°
2026-05-08 01:25 33.69988 -118.51670 10535 ft 324 kts 140°
2026-05-08 01:25 33.68533 -118.49549 10734 ft 339 kts 118°
2026-05-08 01:25 33.67396 -118.46967 10891 ft 359 kts 115°
2026-05-08 01:26 33.66260 -118.44247 11034 ft 377 kts 115°
2026-05-08 01:26 33.65066 -118.41375 11326 ft 389 kts 115°
2026-05-08 01:26 33.63841 -118.38460 11854 ft 392 kts 115°
2026-05-08 01:26 33.62600 -118.35541 12469 ft 393 kts 116°
2026-05-08 01:27 33.61346 -118.32615 13020 ft 396 kts 116°
2026-05-08 01:27 33.60077 -118.29668 13584 ft 398 kts 116°
2026-05-08 01:27 33.58800 -118.26709 14114 ft 399 kts 116°
2026-05-08 01:27 33.57529 -118.23769 14568 ft 403 kts 116°
2026-05-08 01:28 33.56658 -118.21754 14883 ft 404 kts 116°
2026-05-08 01:28 33.54934 -118.17769 15496 ft 408 kts 116°
2026-05-08 01:28 33.53623 -118.14742 15961 ft 411 kts 116°
2026-05-08 01:28 33.52747 -118.12714 16250 ft 413 kts 116°
2026-05-08 01:29 33.51424 -118.09636 16687 ft 415 kts 116°
2026-05-08 01:29 33.50098 -118.06549 17148 ft 418 kts 116°
2026-05-08 01:29 33.48756 -118.03433 17563 ft 421 kts 115°
2026-05-08 01:29 33.47411 -118.00335 17985 ft 425 kts 117°
2026-05-08 01:30 33.45627 -117.97487 18353 ft 432 kts 135°
2026-05-08 01:30 33.43340 -117.95131 18768 ft 434 kts 138°
2026-05-08 01:30 33.41031 -117.92776 19129 ft 437 kts 137°
2026-05-08 01:30 33.38725 -117.90389 19504 ft 439 kts 137°
2026-05-08 01:31 33.36421 -117.87974 19858 ft 441 kts 137°
2026-05-08 01:31 33.34139 -117.85565 20211 ft 444 kts 136°
2026-05-08 01:31 33.31822 -117.83109 20563 ft 446 kts 136°
2026-05-08 01:31 33.29488 -117.80634 20905 ft 449 kts 136°
2026-05-08 01:32 33.27143 -117.78149 21241 ft 451 kts 136°
2026-05-08 01:32 33.24781 -117.75650 21567 ft 454 kts 137°
2026-05-08 01:32 33.22406 -117.73140 21892 ft 456 kts 137°
2026-05-08 01:32 33.20048 -117.70650 22198 ft 459 kts 136°
2026-05-08 01:33 33.17656 -117.68097 22504 ft 461 kts 134°
2026-05-08 01:33 33.15714 -117.65081 22737 ft 459 kts 115°
2026-05-08 01:33 33.14539 -117.61554 23104 ft 457 kts 107°
2026-05-08 01:33 33.13516 -117.57951 23407 ft 459 kts 107°
2026-05-08 01:34 33.12493 -117.54323 23652 ft 462 kts 107°
2026-05-08 01:34 33.11454 -117.50671 23885 ft 464 kts 107°
2026-05-08 01:34 33.10415 -117.47065 24143 ft 465 kts 107°
2026-05-08 01:34 33.09351 -117.43417 24402 ft 467 kts 107°
2026-05-08 01:35 33.08272 -117.39751 24646 ft 468 kts 107°
2026-05-08 01:35 33.07187 -117.36082 24881 ft 470 kts 107°
2026-05-08 01:35 33.06095 -117.32400 25105 ft 472 kts 107°
2026-05-08 01:35 33.04995 -117.28700 25338 ft 473 kts 107°
2026-05-08 01:36 33.03893 -117.24994 25574 ft 475 kts 107°
2026-05-08 01:36 33.02785 -117.21274 25804 ft 476 kts 107°
2026-05-08 01:36 33.01689 -117.17595 26020 ft 477 kts 107°
2026-05-08 01:36 33.00575 -117.13861 26263 ft 478 kts 107°
2026-05-08 01:37 32.99456 -117.10113 26483 ft 480 kts 107°
2026-05-08 01:37 32.98333 -117.06357 26688 ft 481 kts 107°
2026-05-08 01:37 32.97206 -117.02592 26974 ft 481 kts 107°
2026-05-08 01:37 32.96097 -116.98892 27313 ft 479 kts 107°
2026-05-08 01:38 32.94975 -116.95154 27674 ft 477 kts 107°
2026-05-08 01:38 32.93858 -116.91437 28006 ft 476 kts 107°
2026-05-08 01:38 32.92741 -116.87725 28295 ft 476 kts 107°
2026-05-08 01:38 32.91622 -116.84008 28583 ft 477 kts 107°
2026-05-08 01:39 32.90502 -116.80295 28851 ft 477 kts 107°
2026-05-08 01:39 32.89381 -116.76581 29206 ft 476 kts 107°
2026-05-08 01:39 32.88262 -116.72879 29583 ft 474 kts 107°
2026-05-08 01:39 32.87145 -116.69190 29981 ft 472 kts 107°
2026-05-08 01:40 32.86045 -116.65560 30286 ft 472 kts 107°
2026-05-08 01:40 32.84930 -116.61883 30556 ft 471 kts 107°
2026-05-08 01:40 32.83817 -116.58215 30826 ft 471 kts 107°
2026-05-08 01:40 32.82703 -116.54550 31100 ft 470 kts 107°
2026-05-08 01:41 32.81592 -116.50899 31402 ft 469 kts 107°
2026-05-08 01:41 32.80453 -116.47260 31670 ft 469 kts 110°
2026-05-08 01:41 32.79094 -116.43726 31942 ft 471 kts 113°
2026-05-08 01:41 32.77586 -116.40261 32175 ft 471 kts 115°
2026-05-08 01:42 32.76046 -116.36881 32403 ft 471 kts 115°
2026-05-08 01:42 32.74481 -116.33472 32709 ft 469 kts 115°
2026-05-08 01:42 32.72932 -116.30061 33010 ft 468 kts 115°
2026-05-08 01:42 32.71403 -116.26649 33238 ft 468 kts 114°
2026-05-08 01:43 32.69892 -116.23231 33441 ft 467 kts 114°
2026-05-08 01:43 32.68388 -116.19806 33677 ft 467 kts 114°
2026-05-08 01:43 32.66889 -116.16378 33969 ft 465 kts 114°
2026-05-08 01:43 32.65418 -116.13012 34171 ft 464 kts 114°
2026-05-08 01:44 32.63927 -116.09600 34336 ft 465 kts 114°
2026-05-08 01:44 32.62436 -116.06191 34483 ft 466 kts 114°
2026-05-08 01:44 32.60939 -116.02773 34676 ft 466 kts 114°
2026-05-08 01:44 32.59446 -115.99371 34831 ft 465 kts 114°
2026-05-08 01:45 32.57945 -115.95956 34942 ft 466 kts 114°
2026-05-08 01:45 32.54929 -115.89099 34950 ft 470 kts 114°
2026-05-08 01:46 32.51914 -115.82263 34901 ft 469 kts 114°
2026-05-08 01:46 32.48888 -115.75417 34895 ft 468 kts 114°
2026-05-08 01:47 32.45866 -115.68590 34895 ft 467 kts 114°
2026-05-08 01:47 32.42859 -115.61810 34879 ft 466 kts 114°
2026-05-08 01:48 32.38317 -115.51590 34876 ft 467 kts 114°
2026-05-08 01:48 32.35302 -115.44822 34862 ft 467 kts 114°
2026-05-08 01:49 32.32257 -115.38001 34854 ft 468 kts 114°
2026-05-08 01:49 32.29225 -115.31221 34886 ft 468 kts 114°
2026-05-08 01:50 32.26172 -115.24408 34863 ft 469 kts 114°
2026-05-08 01:50 32.23112 -115.17593 34859 ft 468 kts 114°
2026-05-08 01:51 32.20055 -115.10794 34860 ft 468 kts 114°
2026-05-08 01:51 32.17020 -115.04058 34860 ft 468 kts 114°
2026-05-08 01:52 32.13954 -114.97266 34867 ft 467 kts 114°
2026-05-08 01:52 32.10891 -114.90495 34862 ft 467 kts 114°
2026-05-08 01:53 32.07848 -114.83778 34861 ft 466 kts 114°
2026-05-08 01:53 32.04777 -114.77012 34862 ft 465 kts 114°
2026-05-08 01:54 32.01734 -114.70319 34864 ft 465 kts 114°
2026-05-08 01:54 31.98674 -114.63603 34863 ft 464 kts 114°
2026-05-08 01:55 31.95612 -114.56892 34863 ft 465 kts 114°
2026-05-08 01:55 31.92544 -114.50182 34865 ft 465 kts 114°
2026-05-08 01:56 31.89488 -114.43511 34868 ft 465 kts 114°
2026-05-08 01:56 31.86406 -114.36795 34881 ft 466 kts 114°
2026-05-08 01:57 31.83311 -114.30061 34864 ft 467 kts 114°
2026-05-08 01:57 31.80216 -114.23341 34870 ft 467 kts 114°
2026-05-08 01:58 31.77132 -114.16655 34867 ft 468 kts 114°
2026-05-08 01:58 31.74023 -114.09930 34864 ft 469 kts 115°
2026-05-08 01:59 31.70900 -114.03187 34875 ft 469 kts 114°
2026-05-08 01:59 31.67773 -113.96446 34864 ft 469 kts 114°
2026-05-08 02:00 31.64663 -113.89755 34869 ft 469 kts 114°
2026-05-08 02:00 31.61528 -113.83022 34864 ft 469 kts 115°
2026-05-08 02:01 31.58413 -113.76344 34881 ft 469 kts 115°
2026-05-08 02:01 31.55267 -113.69605 34875 ft 471 kts 115°
2026-05-08 02:02 31.52107 -113.62854 34875 ft 472 kts 115°
2026-05-08 02:02 31.48944 -113.56109 34875 ft 472 kts 115°
2026-05-08 02:03 31.45793 -113.49400 34873 ft 472 kts 115°
2026-05-08 02:03 31.42612 -113.42637 34895 ft 473 kts 115°
2026-05-08 02:04 31.39427 -113.35878 34883 ft 475 kts 115°
2026-05-08 02:04 31.35868 -113.29379 34876 ft 481 kts 127°
2026-05-08 02:05 31.30935 -113.23995 34887 ft 486 kts 136°
2026-05-08 02:05 31.25803 -113.18897 34880 ft 486 kts 136°
2026-05-08 02:06 31.20654 -113.13738 34881 ft 486 kts 136°
2026-05-08 02:06 31.15570 -113.08588 34894 ft 487 kts 135°
2026-05-08 02:07 31.10445 -113.03380 34884 ft 487 kts 135°
2026-05-08 02:07 31.05326 -112.98185 34882 ft 487 kts 135°
2026-05-08 02:08 31.00234 -112.93027 34876 ft 488 kts 136°
2026-05-08 02:08 30.95100 -112.87837 34892 ft 488 kts 136°
2026-05-08 02:09 30.89974 -112.82663 34898 ft 490 kts 136°
2026-05-08 02:09 30.84809 -112.77457 34920 ft 491 kts 137°
2026-05-08 02:10 30.79629 -112.72242 34893 ft 493 kts 138°
2026-05-08 02:10 30.74425 -112.67013 34899 ft 495 kts 139°
2026-05-08 02:11 30.69224 -112.61795 34906 ft 498 kts 139°
2026-05-08 02:11 30.63954 -112.56514 34905 ft 500 kts 139°
2026-05-08 02:12 30.58670 -112.51227 34878 ft 501 kts 140°
2026-05-08 02:12 30.53379 -112.45940 34903 ft 502 kts 140°
2026-05-08 02:13 30.48113 -112.40689 34909 ft 502 kts 140°
2026-05-08 02:13 30.42811 -112.35408 34897 ft 501 kts 140°
2026-05-08 02:14 30.37514 -112.30139 34899 ft 500 kts 140°
2026-05-08 02:14 30.32258 -112.24922 34898 ft 499 kts 141°
2026-05-08 02:15 30.26979 -112.19685 34901 ft 499 kts 141°
2026-05-08 02:15 30.21708 -112.14465 34909 ft 499 kts 142°
2026-05-08 02:16 30.17316 -112.10122 34918 ft 499 kts 142°
2026-05-08 02:16 30.12037 -112.04908 34889 ft 499 kts 142°
2026-05-08 02:17 30.06760 -111.99704 34895 ft 499 kts 142°
2026-05-08 02:17 30.01479 -111.94501 34908 ft 499 kts 142°
2026-05-08 02:18 29.96183 -111.89296 34912 ft 499 kts 142°
2026-05-08 02:18 29.90919 -111.84126 34884 ft 499 kts 143°
2026-05-08 02:19 29.85623 -111.78933 34912 ft 499 kts 143°
2026-05-08 02:19 29.80359 -111.73776 34904 ft 498 kts 143°
2026-05-08 02:20 29.75070 -111.68595 34901 ft 497 kts 143°
2026-05-08 02:20 29.69802 -111.63449 34899 ft 497 kts 144°
2026-05-08 02:21 29.64541 -111.58313 34888 ft 495 kts 145°
2026-05-08 02:21 29.59323 -111.53226 34882 ft 493 kts 145°
2026-05-08 02:22 29.54038 -111.48239 34897 ft 491 kts 144°
2026-05-08 02:22 29.48880 -111.43084 34888 ft 491 kts 144°
2026-05-08 02:23 29.43671 -111.37997 34874 ft 489 kts 146°
2026-05-08 02:23 29.38506 -111.33006 34879 ft 488 kts 146°
2026-05-08 02:24 29.33311 -111.27999 34894 ft 487 kts 146°
2026-05-08 02:24 29.28105 -111.23046 34921 ft 485 kts 146°
2026-05-08 02:25 29.22918 -111.18029 34930 ft 489 kts 145°
2026-05-08 02:25 29.17737 -111.13011 34932 ft 490 kts 146°
2026-05-08 02:26 29.12505 -111.07985 34932 ft 489 kts 146°
2026-05-08 02:26 29.07405 -111.02823 34932 ft 492 kts 141°
2026-05-08 02:27 29.02704 -110.97189 34926 ft 492 kts 139°
2026-05-08 02:27 28.98019 -110.91476 34920 ft 490 kts 139°
2026-05-08 02:28 28.93345 -110.85888 34916 ft 488 kts 140°
2026-05-08 02:28 28.88631 -110.80311 34928 ft 487 kts 140°
2026-05-08 02:29 28.83909 -110.74733 34920 ft 486 kts 140°
2026-05-08 02:29 28.79237 -110.69218 34912 ft 485 kts 140°
2026-05-08 02:30 28.74551 -110.63692 34897 ft 484 kts 140°
2026-05-08 02:30 28.69848 -110.58199 34920 ft 483 kts 141°
2026-05-08 02:31 28.65127 -110.52726 34922 ft 484 kts 141°
2026-05-08 02:31 28.60431 -110.47284 34920 ft 485 kts 141°
2026-05-08 02:32 28.55687 -110.41784 34925 ft 486 kts 141°
2026-05-08 02:32 28.50936 -110.36282 34917 ft 487 kts 141°
2026-05-08 02:33 28.46171 -110.30778 34926 ft 488 kts 141°
2026-05-08 02:33 28.41441 -110.25308 34925 ft 488 kts 141°
2026-05-08 02:34 28.36669 -110.19802 34926 ft 488 kts 141°
2026-05-08 02:34 28.31883 -110.14288 34924 ft 489 kts 141°
2026-05-08 02:35 28.27143 -110.08833 34915 ft 487 kts 142°
2026-05-08 02:35 28.22388 -110.03370 34925 ft 485 kts 142°
2026-05-08 02:36 28.17653 -109.97937 34925 ft 483 kts 142°
2026-05-08 02:36 28.12950 -109.92497 34928 ft 482 kts 142°
2026-05-08 02:37 28.08297 -109.87017 34926 ft 481 kts 142°
2026-05-08 02:37 28.03683 -109.81597 34926 ft 479 kts 143°
2026-05-08 02:38 27.99040 -109.76159 34939 ft 478 kts 143°
2026-05-08 02:38 27.94437 -109.70799 34936 ft 476 kts 144°
2026-05-08 02:39 27.89811 -109.65429 34957 ft 477 kts 142°
2026-05-08 02:39 27.85245 -109.60000 34957 ft 475 kts 144°
2026-05-08 02:40 27.80636 -109.54687 34934 ft 475 kts 144°
2026-05-08 02:40 27.75989 -109.49391 34927 ft 469 kts 146°
2026-05-08 02:41 27.71422 -109.44041 34960 ft 475 kts 143°
2026-05-08 02:41 27.66883 -109.38690 34962 ft 473 kts 145°
2026-05-08 02:42 27.62248 -109.33387 34957 ft 474 kts 145°
2026-05-08 02:42 27.57648 -109.28080 34923 ft 475 kts 145°
2026-05-08 02:43 27.53015 -109.22786 34960 ft 473 kts 145°
2026-05-08 02:43 27.48398 -109.17555 34954 ft 473 kts 146°
2026-05-08 02:44 27.43762 -109.12291 34962 ft 472 kts 145°
2026-05-08 02:44 27.39138 -109.07029 34964 ft 471 kts 146°
2026-05-08 02:45 27.34514 -109.01886 34867 ft 462 kts 153°
2026-05-08 02:45 27.32167 -108.99277 33785 ft 504 kts 135°
2026-05-08 02:45 27.30131 -108.95952 33204 ft 506 kts 136°
2026-05-08 02:46 27.27945 -108.93027 33355 ft 473 kts 146°
2026-05-08 02:46 27.25567 -108.90533 33487 ft 463 kts 149°
2026-05-08 02:46 27.23142 -108.88169 33611 ft 462 kts 150°
2026-05-08 02:46 27.20720 -108.85781 33739 ft 464 kts 149°
2026-05-08 02:47 27.18361 -108.83360 33863 ft 466 kts 148°
2026-05-08 02:47 27.15997 -108.80835 34001 ft 467 kts 147°
2026-05-08 02:47 27.13672 -108.78268 34114 ft 469 kts 146°
2026-05-08 02:47 27.11369 -108.75679 34226 ft 468 kts 146°
2026-05-08 02:48 27.09070 -108.73080 34333 ft 467 kts 146°
2026-05-08 02:48 27.06809 -108.70518 34418 ft 466 kts 146°
2026-05-08 02:48 27.04523 -108.67939 34527 ft 466 kts 146°
2026-05-08 02:48 27.02241 -108.65366 34627 ft 462 kts 146°
2026-05-08 02:49 26.99971 -108.62803 34750 ft 461 kts 146°
2026-05-08 02:49 26.97680 -108.60300 34852 ft 458 kts 147°
2026-05-08 02:49 26.93162 -108.55248 34975 ft 464 kts 146°
2026-05-08 02:50 26.88584 -108.50054 34982 ft 470 kts 146°
2026-05-08 02:50 26.83980 -108.44878 34973 ft 472 kts 146°
2026-05-08 02:51 26.79331 -108.39680 34965 ft 472 kts 146°
2026-05-08 02:51 26.74679 -108.34486 34975 ft 471 kts 146°
2026-05-08 02:52 26.70051 -108.29324 34972 ft 471 kts 146°
2026-05-08 02:52 26.65416 -108.24153 34969 ft 464 kts 149°
2026-05-08 02:53 26.60775 -108.19065 34957 ft 468 kts 145°
2026-05-08 02:53 26.56449 -108.13628 34998 ft 477 kts 138°
2026-05-08 02:54 26.52592 -108.07489 34998 ft 483 kts 135°
2026-05-08 02:54 26.48802 -108.01330 34999 ft 483 kts 136°
2026-05-08 02:55 26.42999 -107.92169 35003 ft 481 kts 136°
2026-05-08 02:56 26.39108 -107.86130 35017 ft 482 kts 137°
2026-05-08 02:56 26.35166 -107.80048 35020 ft 483 kts 137°
2026-05-08 02:57 26.31260 -107.73988 34976 ft 483 kts 136°
2026-05-08 02:57 26.27343 -107.67924 34989 ft 481 kts 137°
2026-05-08 02:58 26.23425 -107.61869 34994 ft 480 kts 136°
2026-05-08 02:58 26.19529 -107.55880 35012 ft 479 kts 137°
2026-05-08 02:59 26.15554 -107.49969 35022 ft 476 kts 138°
2026-05-08 02:59 26.11692 -107.43948 35024 ft 478 kts 136°
2026-05-08 03:00 26.07871 -107.37869 34956 ft 477 kts 136°
2026-05-08 03:00 26.04018 -107.31956 35017 ft 474 kts 137°
2026-05-08 03:01 26.00134 -107.25940 34984 ft 485 kts 134°
2026-05-08 03:01 25.96126 -107.19958 35039 ft 483 kts 136°
2026-05-08 03:02 25.92127 -107.13988 35024 ft 485 kts 136°
2026-05-08 03:02 25.88250 -107.07827 35042 ft 484 kts 136°
2026-05-08 03:03 25.84242 -107.01919 35020 ft 479 kts 137°
2026-05-08 03:03 25.80341 -106.95853 35057 ft 482 kts 135°
2026-05-08 03:04 25.77098 -106.90836 35084 ft 480 kts 135°
2026-05-08 03:04 25.72598 -106.83824 35064 ft 477 kts 136°
2026-05-08 03:05 25.69317 -106.78900 35065 ft 476 kts 137°
2026-05-08 03:05 25.65362 -106.73008 35103 ft 480 kts 134°
2026-05-08 03:06 25.61585 -106.66887 35064 ft 478 kts 136°
2026-05-08 03:06 25.57599 -106.61026 35077 ft 480 kts 136°
2026-05-08 03:07 25.53672 -106.55003 35071 ft 481 kts 136°
2026-05-08 03:07 25.49734 -106.49049 35081 ft 482 kts 136°
2026-05-08 03:08 25.45736 -106.43077 35082 ft 481 kts 137°
2026-05-08 03:08 25.41765 -106.37066 35084 ft 485 kts 136°
2026-05-08 03:09 25.37779 -106.31059 35078 ft 483 kts 136°
2026-05-08 03:09 25.33759 -106.25178 35045 ft 481 kts 137°
2026-05-08 03:10 25.29701 -106.19287 35089 ft 481 kts 137°
2026-05-08 03:10 25.25657 -106.13372 35104 ft 483 kts 136°
2026-05-08 03:11 25.21614 -106.07505 35115 ft 482 kts 137°
2026-05-08 03:11 25.17574 -106.01564 35096 ft 483 kts 136°
2026-05-08 03:12 25.13544 -105.95613 35077 ft 483 kts 136°
2026-05-08 03:12 25.09523 -105.89721 35088 ft 482 kts 137°
2026-05-08 03:13 25.05473 -105.83809 35081 ft 481 kts 136°
2026-05-08 03:13 25.01440 -105.77921 35084 ft 482 kts 136°
2026-05-08 03:14 24.97446 -105.72020 35070 ft 482 kts 137°
2026-05-08 03:14 24.93391 -105.66140 35070 ft 481 kts 137°
2026-05-08 03:15 24.89367 -105.60297 35067 ft 480 kts 137°
2026-05-08 03:15 24.85306 -105.54443 35052 ft 476 kts 140°
2026-05-08 03:16 24.81266 -105.48688 35070 ft 477 kts 135°
2026-05-08 03:16 24.77313 -105.42796 35063 ft 478 kts 136°
2026-05-08 03:17 24.73299 -105.36938 35075 ft 479 kts 136°
2026-05-08 03:17 24.69282 -105.31124 35072 ft 481 kts 136°
2026-05-08 03:18 24.65212 -105.25237 35063 ft 483 kts 136°
2026-05-08 03:18 24.61129 -105.19343 35064 ft 484 kts 136°
2026-05-08 03:19 24.57064 -105.13491 35065 ft 485 kts 136°
2026-05-08 03:19 24.52970 -105.07598 35045 ft 484 kts 136°
2026-05-08 03:20 24.48881 -105.01728 35038 ft 482 kts 136°
2026-05-08 03:20 24.44809 -104.95883 35037 ft 481 kts 136°
2026-05-08 03:21 24.40769 -104.90090 35028 ft 480 kts 136°
2026-05-08 03:21 24.36621 -104.84357 35027 ft 476 kts 139°
2026-05-08 03:22 24.32596 -104.78484 35060 ft 481 kts 136°
2026-05-08 03:22 24.28565 -104.72669 35101 ft 481 kts 136°
2026-05-08 03:23 24.24499 -104.66831 35151 ft 480 kts 136°
2026-05-08 03:23 24.20454 -104.61069 35205 ft 480 kts 136°
2026-05-08 03:24 24.16368 -104.55255 35225 ft 480 kts 136°
2026-05-08 03:24 24.12323 -104.49475 35221 ft 481 kts 135°
2026-05-08 03:25 24.08331 -104.43570 35218 ft 482 kts 135°
2026-05-08 03:25 24.04352 -104.37638 35166 ft 482 kts 135°
2026-05-08 03:26 24.00391 -104.31763 35097 ft 483 kts 135°
2026-05-08 03:26 23.96381 -104.25841 35042 ft 483 kts 135°
2026-05-08 03:27 23.92392 -104.19961 34982 ft 484 kts 135°
2026-05-08 03:27 23.88372 -104.14040 34976 ft 484 kts 135°
2026-05-08 03:28 23.84344 -104.08113 34982 ft 484 kts 135°
2026-05-08 03:28 23.80323 -104.02203 34984 ft 484 kts 135°
2026-05-08 03:29 23.76315 -103.96320 34992 ft 485 kts 135°
2026-05-08 03:29 23.72283 -103.90407 34992 ft 484 kts 134°
2026-05-08 03:30 23.66281 -103.81577 35009 ft 484 kts 134°
2026-05-08 03:31 23.58217 -103.69810 34993 ft 484 kts 135°
2026-05-08 03:32 23.52137 -103.61013 34996 ft 483 kts 135°
2026-05-08 03:32 23.48106 -103.55146 34996 ft 482 kts 135°
2026-05-08 03:33 23.44124 -103.49331 34987 ft 481 kts 134°
2026-05-08 03:33 23.40116 -103.43481 34983 ft 480 kts 134°
2026-05-08 03:34 23.36111 -103.37668 34993 ft 479 kts 134°
2026-05-08 03:34 23.32103 -103.31854 34975 ft 480 kts 134°
2026-05-08 03:35 23.28120 -103.26076 34984 ft 481 kts 134°
2026-05-08 03:35 23.24090 -103.20235 34981 ft 482 kts 134°
2026-05-08 03:36 23.20462 -103.14981 34963 ft 483 kts 134°
2026-05-08 03:36 23.16428 -103.09142 34969 ft 482 kts 134°
2026-05-08 03:37 23.12393 -103.03321 34967 ft 482 kts 134°
2026-05-08 03:37 23.08366 -102.97531 35005 ft 482 kts 134°
2026-05-08 03:38 23.04319 -102.91711 35066 ft 482 kts 134°
2026-05-08 03:38 23.00275 -102.85898 35125 ft 481 kts 134°
2026-05-08 03:39 22.96253 -102.80126 35187 ft 481 kts 134°
2026-05-08 03:39 22.92210 -102.74328 35215 ft 481 kts 134°
2026-05-08 03:40 22.87900 -102.68849 35220 ft 470 kts 145°
2026-05-08 03:40 22.82689 -102.64818 35224 ft 461 kts 154°
2026-05-08 03:41 22.77300 -102.61029 35170 ft 462 kts 153°
2026-05-08 03:41 22.71910 -102.57195 35115 ft 463 kts 153°
2026-05-08 03:42 22.66565 -102.53367 35048 ft 463 kts 153°
2026-05-08 03:42 22.61182 -102.49498 34967 ft 463 kts 152°
2026-05-08 03:43 22.55812 -102.45640 34956 ft 463 kts 152°
2026-05-08 03:43 22.50469 -102.41806 34975 ft 464 kts 153°
2026-05-08 03:44 22.45072 -102.37949 34963 ft 465 kts 153°
2026-05-08 03:44 22.39657 -102.34068 34957 ft 466 kts 153°
2026-05-08 03:45 22.34245 -102.30191 34944 ft 466 kts 153°
2026-05-08 03:45 22.28887 -102.26296 34927 ft 467 kts 152°
2026-05-08 03:46 22.23442 -102.22445 34933 ft 467 kts 152°
2026-05-08 03:46 22.18019 -102.18603 34937 ft 468 kts 152°
2026-05-08 03:47 22.12569 -102.14725 34925 ft 469 kts 152°
2026-05-08 03:47 22.07112 -102.10838 34931 ft 469 kts 152°
2026-05-08 03:48 22.01688 -102.06979 34935 ft 469 kts 152°
2026-05-08 03:48 21.96231 -102.03102 34929 ft 468 kts 151°
2026-05-08 03:49 21.90811 -101.99254 34942 ft 468 kts 151°
2026-05-08 03:49 21.85365 -101.95390 34950 ft 468 kts 151°
2026-05-08 03:50 21.79913 -101.91526 34956 ft 469 kts 151°
2026-05-08 03:50 21.74450 -101.87658 34968 ft 470 kts 151°
2026-05-08 03:51 21.69023 -101.83818 34967 ft 470 kts 151°
2026-05-08 03:51 21.63564 -101.79960 34968 ft 469 kts 151°
2026-05-08 03:52 21.58160 -101.76005 34960 ft 473 kts 143°
2026-05-08 03:52 21.53700 -101.70769 34993 ft 483 kts 129°
2026-05-08 03:53 21.50006 -101.64737 34986 ft 482 kts 127°
2026-05-08 03:53 21.46378 -101.58685 35016 ft 480 kts 127°
2026-05-08 03:54 21.42716 -101.52679 35015 ft 479 kts 128°
2026-05-08 03:54 21.39062 -101.46753 34997 ft 478 kts 127°
2026-05-08 03:55 21.35375 -101.40795 35033 ft 477 kts 128°
2026-05-08 03:55 21.31725 -101.34897 35042 ft 477 kts 128°
2026-05-08 03:56 21.28042 -101.28949 35042 ft 477 kts 127°
2026-05-08 03:56 21.24366 -101.23019 35052 ft 477 kts 127°
2026-05-08 03:57 21.20682 -101.17082 35041 ft 478 kts 127°
2026-05-08 03:57 21.16994 -101.11143 35051 ft 478 kts 128°
2026-05-08 03:58 21.13321 -101.05235 35042 ft 479 kts 128°
2026-05-08 03:58 21.09613 -100.99277 35043 ft 480 kts 128°
2026-05-08 03:59 21.05843 -100.93357 35041 ft 479 kts 130°
2026-05-08 03:59 21.01836 -100.87722 35038 ft 478 kts 132°
2026-05-08 04:00 20.97733 -100.82101 35036 ft 479 kts 132°
2026-05-08 04:00 20.93649 -100.76457 35045 ft 479 kts 131°
2026-05-08 04:01 20.89606 -100.70824 35020 ft 479 kts 131°
2026-05-08 04:01 20.85538 -100.65148 35019 ft 479 kts 131°
2026-05-08 04:02 20.81472 -100.59481 35020 ft 479 kts 131°
2026-05-08 04:02 20.77428 -100.53852 35002 ft 480 kts 131°
2026-05-08 04:03 20.73356 -100.48192 35007 ft 479 kts 131°
2026-05-08 04:03 20.67268 -100.39742 34830 ft 483 kts 131°
2026-05-08 04:04 20.65205 -100.36883 34555 ft 482 kts 131°
2026-05-08 04:04 20.63158 -100.34044 34305 ft 481 kts 131°
2026-05-08 04:04 20.59092 -100.28410 34105 ft 482 kts 131°
2026-05-08 04:05 20.57044 -100.25576 33843 ft 482 kts 131°
2026-05-08 04:05 20.54998 -100.22745 33563 ft 483 kts 131°
2026-05-08 04:05 20.52935 -100.19891 33289 ft 483 kts 131°
2026-05-08 04:05 20.50879 -100.17050 32983 ft 483 kts 131°
2026-05-08 04:06 20.48847 -100.14243 32574 ft 485 kts 131°
2026-05-08 04:06 20.46784 -100.11395 32188 ft 486 kts 131°
2026-05-08 04:06 20.44709 -100.08531 31786 ft 486 kts 131°
2026-05-08 04:06 20.42641 -100.05678 31413 ft 486 kts 131°
2026-05-08 04:07 20.40570 -100.02822 31030 ft 486 kts 130°
2026-05-08 04:07 20.38521 -99.99998 30537 ft 485 kts 130°
2026-05-08 04:07 20.36466 -99.97164 30097 ft 479 kts 130°
2026-05-08 04:07 20.34420 -99.94347 29603 ft 481 kts 130°
2026-05-08 04:08 20.32363 -99.91518 29123 ft 485 kts 130°
2026-05-08 04:08 20.30295 -99.88675 28644 ft 487 kts 130°
2026-05-08 04:08 20.28215 -99.85815 28158 ft 488 kts 130°
2026-05-08 04:08 20.26139 -99.82960 27701 ft 487 kts 130°
2026-05-08 04:09 20.24067 -99.80112 27228 ft 485 kts 130°
2026-05-08 04:09 20.22003 -99.77269 26775 ft 484 kts 129°
2026-05-08 04:09 20.20279 -99.74174 26288 ft 491 kts 114°
2026-05-08 04:09 20.19251 -99.70738 25910 ft 491 kts 109°
2026-05-08 04:10 20.18258 -99.67280 25459 ft 488 kts 110°
2026-05-08 04:10 20.17241 -99.63845 25027 ft 484 kts 111°
2026-05-08 04:10 20.16210 -99.60448 24599 ft 480 kts 111°
2026-05-08 04:10 20.15170 -99.57080 24185 ft 477 kts 111°
2026-05-08 04:11 20.14142 -99.53778 23754 ft 463 kts 111°
2026-05-08 04:11 20.13133 -99.50545 23287 ft 457 kts 111°
2026-05-08 04:11 20.12123 -99.47321 22811 ft 461 kts 111°
2026-05-08 04:11 20.11118 -99.44113 22337 ft 462 kts 110°
2026-05-08 04:12 20.10111 -99.40894 21855 ft 455 kts 110°
2026-05-08 04:12 20.09119 -99.37716 21380 ft 448 kts 110°
2026-05-08 04:12 20.08150 -99.34609 20908 ft 436 kts 110°
2026-05-08 04:12 20.07212 -99.31605 20456 ft 420 kts 110°
2026-05-08 04:13 20.06308 -99.28711 19994 ft 404 kts 110°
2026-05-08 04:13 20.05433 -99.25915 19548 ft 391 kts 110°
2026-05-08 04:13 20.04595 -99.23241 19112 ft 380 kts 110°
2026-05-08 04:13 20.03766 -99.20600 18702 ft 370 kts 110°
2026-05-08 04:14 20.02958 -99.18025 18283 ft 362 kts 110°
2026-05-08 04:14 20.02170 -99.15515 17911 ft 352 kts 110°
2026-05-08 04:14 20.01415 -99.13108 17820 ft 335 kts 110°
2026-05-08 04:14 20.00699 -99.10827 17789 ft 323 kts 110°
2026-05-08 04:15 19.99993 -99.08582 17801 ft 320 kts 110°
2026-05-08 04:15 19.99284 -99.06329 17828 ft 322 kts 110°
2026-05-08 04:15 19.98564 -99.04046 17844 ft 326 kts 109°
2026-05-08 04:15 19.97843 -99.01757 17843 ft 326 kts 110°
2026-05-08 04:16 19.97122 -98.99470 17843 ft 325 kts 110°
2026-05-08 04:16 19.96461 -98.97172 17843 ft 325 kts 103°
2026-05-08 04:16 19.96075 -98.94791 17482 ft 332 kts 99°
2026-05-08 04:16 19.95778 -98.92338 16987 ft 334 kts 98°
2026-05-08 04:17 19.95470 -98.89901 16491 ft 331 kts 98°
2026-05-08 04:17 19.95137 -98.87497 16005 ft 327 kts 99°
2026-05-08 04:17 19.94797 -98.85147 15522 ft 323 kts 99°
2026-05-08 04:17 19.94346 -98.82820 15032 ft 320 kts 108°
2026-05-08 04:18 19.93498 -98.80654 14551 ft 315 kts 125°
2026-05-08 04:18 19.91907 -98.79102 14111 ft 310 kts 153°
2026-05-08 04:18 19.89888 -98.78413 13669 ft 302 kts 174°
2026-05-08 04:18 19.87813 -98.78468 13181 ft 297 kts 191°
2026-05-08 04:19 19.85783 -98.78881 12718 ft 296 kts 192°
2026-05-08 04:19 19.83796 -98.79329 12244 ft 294 kts 192°
2026-05-08 04:19 19.81809 -98.79783 11937 ft 286 kts 192°
2026-05-08 04:19 19.79912 -98.80210 11805 ft 273 kts 192°
2026-05-08 04:20 19.78066 -98.80621 11571 ft 268 kts 192°
2026-05-08 04:20 19.76272 -98.81016 11374 ft 258 kts 192°
2026-05-08 04:20 19.74526 -98.81398 11147 ft 255 kts 191°
2026-05-08 04:20 19.72768 -98.81781 10994 ft 261 kts 191°
2026-05-08 04:21 19.70968 -98.82172 10941 ft 268 kts 191°
2026-05-08 04:21 19.69157 -98.82564 10901 ft 266 kts 191°
2026-05-08 04:21 19.67354 -98.82954 10715 ft 262 kts 191°
2026-05-08 04:21 19.65564 -98.83342 10732 ft 263 kts 191°
2026-05-08 04:22 19.63769 -98.83729 10739 ft 262 kts 192°
2026-05-08 04:22 19.62581 -98.83987 10770 ft 251 kts 191°
2026-05-08 04:22 19.60950 -98.84339 10769 ft 232 kts 191°
2026-05-08 04:22 19.59418 -98.84669 10775 ft 218 kts 191°
2026-05-08 04:23 19.57927 -98.84990 10806 ft 218 kts 192°
2026-05-08 04:23 19.56439 -98.85335 10814 ft 218 kts 199°
2026-05-08 04:23 19.55258 -98.86251 10840 ft 208 kts 235°
2026-05-08 04:23 19.54518 -98.87523 10850 ft 194 kts 237°
2026-05-08 04:24 19.53868 -98.88677 10712 ft 181 kts 237°
2026-05-08 04:24 19.53237 -98.89801 10538 ft 178 kts 238°
2026-05-08 04:24 19.52606 -98.90927 10334 ft 176 kts 237°
2026-05-08 04:24 19.51980 -98.92042 10107 ft 175 kts 237°
2026-05-08 04:25 19.51357 -98.93151 9868 ft 175 kts 238°
2026-05-08 04:25 19.50734 -98.94261 9698 ft 176 kts 238°
2026-05-08 04:25 19.50100 -98.95389 9523 ft 180 kts 239°
2026-05-08 04:25 19.49452 -98.96545 9308 ft 184 kts 242°
2026-05-08 04:26 19.48796 -98.97715 8969 ft 183 kts 241°
2026-05-08 04:26 19.48160 -98.98849 8689 ft 176 kts 240°
2026-05-08 04:26 19.47542 -98.99953 8469 ft 172 kts 240°
2026-05-08 04:26 19.46940 -99.01026 8243 ft 167 kts 240°
2026-05-08 04:27 19.46347 -99.02065 8006 ft 163 kts 239°
2026-05-08 04:27 19.45771 -99.03081 7805 ft 161 kts 242°
2026-05-08 04:27 19.45198 -99.04096 7616 ft 160 kts 242°
2026-05-08 04:27 19.44637 -99.05116 7389 ft 159 kts 243°
2026-05-08 04:28 19.44093 -99.06106 7301 ft 147 kts 242°
2026-05-08 04:28 19.43629 -99.06931 7301 ft 113 kts 239°
2026-05-08 04:28 19.43377 -99.07393 7303 ft 17 kts 253°
2026-05-08 04:28 19.43339 -99.07510 7302 ft 17 kts 255°
2026-05-08 04:29 19.43326 -99.07622 7302 ft 14 kts 268°
2026-05-08 04:29 19.43326 -99.07723 7302 ft 13 kts 269°
2026-05-08 04:29 19.43325 -99.07820 7302 ft 13 kts 269°
2026-05-08 04:29 19.43324 -99.07914 7302 ft 13 kts 270°
2026-05-08 04:30 19.43325 -99.08006 7303 ft 12 kts 276°
2026-05-08 04:30 19.43352 -99.08064 7302 ft 9 kts 316°
2026-05-08 04:30 19.43398 -99.08103 7302 ft 8 kts 301°
2026-05-08 04:30 19.43394 -99.08149 7302 ft 6 kts 245°
2026-05-08 04:31 19.43373 -99.08189 7302 ft 6 kts 239°
2026-05-08 04:31 19.43351 -99.08229 7302 ft 6 kts 242°
2026-05-08 04:31 19.43359 -99.08268 7302 ft 6 kts 316°
2026-05-08 04:31 19.43390 -99.08291 7302 ft 3 kts 328°
2026-05-08 04:32 19.43403 -99.08299 7302 ft 1 kts 329°
2026-05-08 04:32 19.43404 -99.08300 7302 ft 0 kts 329°